San Angelo, TX

1:45 AM CDT on May 24, 2018 (GMT -0500)
San Angelo Regional-Mathis

Weather History for KSJT - May, 2014

Change the Weather History Date:

Thursday, May 29, 2014

  Actual Average Record
Temperature  
Mean Temperature 76 °F 78 °F  
Max Temperature 88 °F 90 °F 107 °F (1927)
Min Temperature 63 °F 66 °F 48 °F (1947)
Degree Days  
Heating Degree Days 0 0  
Month to date heating degree days 28 8  
Since 1 July heating degree days 2497 2314  
Cooling Degree Days 11 13  
Month to date cooling degree days 320 279  
Year to date cooling degree days 573 435  
Growing Degree Days 26 (Base 50)    
Moisture  
Dew Point 61 °F    
Average Humidity 65    
Maximum Humidity 93    
Minimum Humidity 36    
Precipitation  
Precipitation 0.00 in 0.11 in 2.40 in (1932)
Month to date precipitation 7.75 2.60  
Year to date precipitation 8.27 7.80  
Sea Level Pressure  
Sea Level Pressure 29.89 in    
Wind  
Wind Speed 6 mph (East)    
Max Wind Speed 17 mph    
Max Gust Speed 21 mph    
Visibility 10 miles    
Events      
T = Trace of Precipitation, MM = Missing Value Source: NWS Daily Summary

Daily Weather History Graph

Daily Weather History Graph

Search for Another Location

Airport or City:

Astronomy

May. 29, 2014 Rise Set
Actual Time 6:39 AM CDT 8:40 PM CDT
Civil Twilight 6:11 AM CDT 9:07 PM CDT
Nautical Twilight 5:38 AM CDT 9:40 PM CDT
Astronomical Twilight 5:02 AM CDT 10:16 PM CDT
Moon 7:30 AM CDT (5/29) 9:35 PM CDT (5/29)
Length of Visible Light 14h 55m
Length of Day
14h 00m
New Moon, 1% of the Moon is Illuminated
May 29
New Moon
Jun 5
First Quarter
Jun 12
Full
Jun 19
Last Quarter
Jun 27
New

Hourly Weather History & Observations

Time (CDT) Temp. Heat Index Dew Point Humidity Pressure Visibility Wind Dir Wind Speed Gust Speed Precip Events Conditions
12:51 AM 68.0 °F - 64.0 °F 87% 29.90 in 10.0 mi SW 3.5 mph - N/A   Clear
1:51 AM 69.1 °F - 63.0 °F 81% 29.89 in 10.0 mi Calm Calm - N/A   Clear
2:51 AM 66.0 °F - 63.0 °F 90% 29.88 in 10.0 mi West 3.5 mph - N/A   Clear
3:51 AM 66.0 °F - 62.1 °F 87% 29.88 in 10.0 mi West 3.5 mph - N/A   Clear
4:51 AM 64.0 °F - 62.1 °F 93% 29.90 in 10.0 mi WSW 4.6 mph - N/A   Clear
5:51 AM 64.0 °F - 62.1 °F 93% 29.89 in 10.0 mi West 4.6 mph - N/A   Clear
6:51 AM 64.0 °F - 61.0 °F 90% 29.91 in 10.0 mi Calm Calm - N/A   Clear
7:51 AM 66.9 °F - 62.1 °F 84% 29.91 in 10.0 mi Calm Calm - N/A   Clear
8:51 AM 71.1 °F - 62.1 °F 73% 29.93 in 10.0 mi Calm Calm - N/A   Clear
9:51 AM 75.9 °F - 63.0 °F 64% 29.94 in 10.0 mi Calm Calm - N/A   Clear
10:51 AM 80.1 °F 81.2 °F 62.1 °F 54% 29.93 in 10.0 mi North 3.5 mph - N/A   Clear
11:51 AM 81.0 °F 81.7 °F 61.0 °F 50% 29.92 in 10.0 mi Variable 6.9 mph - N/A   Clear
12:51 PM 84.0 °F 84.0 °F 60.1 °F 44% 29.92 in 10.0 mi North 8.1 mph - N/A   Scattered Clouds
1:51 PM 84.9 °F 84.4 °F 59.0 °F 41% 29.90 in 10.0 mi NE 9.2 mph - N/A   Partly Cloudy
2:51 PM 87.1 °F 86.5 °F 59.0 °F 39% 29.88 in 10.0 mi East 15.0 mph 18.4 mph N/A   Clear
3:51 PM 87.1 °F 86.1 °F 57.9 °F 37% 29.86 in 10.0 mi East 11.5 mph 18.4 mph N/A   Clear
4:51 PM 87.1 °F 85.9 °F 57.0 °F 36% 29.85 in 10.0 mi NE 13.8 mph - N/A   Partly Cloudy
5:51 PM 87.1 °F 86.1 °F 57.9 °F 37% 29.83 in 10.0 mi ENE 9.2 mph - N/A   Partly Cloudy
6:51 PM 86.0 °F 85.0 °F 57.9 °F 38% 29.83 in 10.0 mi ENE 8.1 mph - N/A   Clear
7:51 PM 84.0 °F 83.5 °F 57.9 °F 41% 29.83 in 10.0 mi East 6.9 mph - N/A   Clear
8:51 PM 79.0 °F - 62.1 °F 56% 29.85 in 10.0 mi ESE 4.6 mph - N/A   Clear
9:51 PM 77.0 °F - 62.1 °F 60% 29.85 in 10.0 mi SE 4.6 mph - N/A   Clear
10:51 PM 73.0 °F - 64.9 °F 76% 29.87 in 10.0 mi South 4.6 mph - N/A   Clear
11:51 PM 73.0 °F - 64.0 °F 73% 29.88 in 10.0 mi SW 4.6 mph - N/A   Clear